This is the latest recevied weather packets stored in our database for station/object SR9SMR. If no packets are shown the sender has not sent any weather packets the latest 1 day(s).
| Time | Temp. | Humidity | Pressure | Rain* | Wind** | Luminosity | Snow |
|---|---|---|---|---|---|---|---|
| 1778032190 | 10° C | 100% | 888.2 hPa | - | 12.52 m/s, 221° | - | - |
| 1778031889 | 10.56° C | 100% | 896.6 hPa | - | 11.18 m/s, 215° | - | - |
| 1778031587 | 10.56° C | 100% | 888 hPa | - | 12.07 m/s, 217° | - | - |
| 1778031282 | 10.56° C | 100% | 889.6 hPa | - | 11.62 m/s, 215° | - | - |
| 1778030980 | 10.56° C | 100% | 891.9 hPa | - | 10.73 m/s, 222° | - | - |
| 1778030678 | 10.56° C | 100% | 890.6 hPa | - | 10.28 m/s, 221° | - | - |
| 1778030375 | 10.56° C | 100% | 894.5 hPa | - | 9.39 m/s, 221° | - | - |
| 1778030074 | 10.56° C | 100% | 890.6 hPa | - | 9.39 m/s, 209° | - | - |
| 1778029772 | 10.56° C | 100% | 896.2 hPa | - | 8.49 m/s, 215° | - | - |
| 1778029459 | 10.56° C | 100% | 897.5 hPa | - | 7.6 m/s, 209° | - | - |
| 1778029156 | 10.56° C | 100% | 890 hPa | - | 7.6 m/s, 204° | - | - |
| 1778028916 | 10.56° C | 100% | 889.3 hPa | - | 8.94 m/s, 221° | - | - |
| 1778028854 | 10.56° C | 100% | 891.9 hPa | - | 8.94 m/s, 221° | - | - |
| 1778028553 | 11.11° C | 100% | 889.8 hPa | - | 8.05 m/s, 212° | - | - |
| 1778028250 | 11.11° C | 100% | 888.8 hPa | - | 10.28 m/s, 217° | - | - |
| 1778027948 | 11.11° C | 100% | 895.7 hPa | - | 10.28 m/s, 217° | - | - |
| 1778027646 | 11.11° C | 100% | 894 hPa | - | 10.28 m/s, 219° | - | - |
| 1778027343 | 11.11° C | 100% | 889.2 hPa | - | 10.73 m/s, 217° | - | - |
| 1778027041 | 11.11° C | 100% | 898.1 hPa | - | 11.62 m/s, 218° | - | - |
| 1778026739 | 11.67° C | 100% | 896.5 hPa | - | 10.28 m/s, 216° | - | - |
| 1778026439 | 11.67° C | 100% | 889 hPa | - | 11.62 m/s, 215° | - | - |
| 1778026137 | 11.67° C | 100% | 897.3 hPa | - | 11.62 m/s, 215° | - | - |
| 1778025835 | 11.67° C | 100% | 895.3 hPa | - | 9.83 m/s, 217° | - | - |
| 1778025534 | 11.67° C | 100% | 889.7 hPa | - | 10.28 m/s, 218° | - | - |
| 1778025233 | 11.67° C | 100% | 889.7 hPa | - | 11.18 m/s, 215° | - | - |
* Rain since midnight (hover to see other rain measurements)
** Current wind speed in m/s (hover to see current wind gust speed)